• în Republica Moldova
  • Lista ţărilor
  • Pe 7 zile
  • Temperatura apei
  • Hartă satelitară
  • Meteo pe hartă
  • Widget-uri
  • user-avatar
    Intrare

    Meteo pe oră la Linz

    Astăzi, 13 Decembrie, Miercuri

    Timp Temperatura Precipitaţii Vânt Presiune Umiditate
    00:00 +1°C° 0,1 mm 2 m/s 734 mmHg 90%
    01:00 +1°C° 0 mm 2 m/s 734 mmHg 91%
    02:00 +2°C° 0 mm 1 m/s 734 mmHg 91%
    03:00 +2°C° 0 mm 1 m/s 734 mmHg 91%
    04:00 +1°C° 0 mm 1 m/s 735 mmHg 91%
    05:00 +1°C° 0 mm 1 m/s 735 mmHg 91%
    06:00 0°C° 0 mm 1 m/s 735 mmHg 91%
    07:00 0°C° 0 mm 1 m/s 735 mmHg 91%
    08:00 +1°C° 0 mm 1 m/s 735 mmHg 89%
    09:00 +2°C° 0 mm 1 m/s 735 mmHg 86%
    10:00 +2°C° 0 mm 1 m/s 735 mmHg 84%
    11:00 +3°C° 0 mm 1 m/s 734 mmHg 80%
    12:00 +4°C° 0 mm 1 m/s 733 mmHg 77%
    13:00 +5°C° 0 mm 1 m/s 733 mmHg 72%
    14:00 +4°C° 0 mm 1 m/s 732 mmHg 76%
    15:00 +1°C° 0 mm 2 m/s 731 mmHg 80%
    16:00 -1°C° 0 mm 2 m/s 730 mmHg 84%
    17:00 -1°C° 0 mm 2 m/s 730 mmHg 84%
    18:00 -1°C° 0 mm 2 m/s 729 mmHg 84%
    19:00 -2°C° 0 mm 2 m/s 729 mmHg 84%
    20:00 -2°C° 0 mm 2 m/s 728 mmHg 84%
    21:00 -1°C° 0 mm 2 m/s 727 mmHg 84%
    22:00 -1°C° 0 mm 2 m/s 726 mmHg 84%
    23:00 -1°C° 0 mm 2 m/s 725 mmHg 84%

    Mâine, 14 Decembrie, Joi

    Timp Temperatura Precipitaţii Vânt Presiune Umiditate
    00:00 -1°C° 0 mm 2 m/s 724 mmHg 84%
    01:00 -1°C° 0 mm 2 m/s 723 mmHg 84%
    02:00 +1°C° 0,1 mm 2 m/s 723 mmHg 82%
    03:00 +1°C° 0,1 mm 2 m/s 722 mmHg 81%
    04:00 +2°C° 0,1 mm 2 m/s 721 mmHg 80%
    05:00 +2°C° 0,2 mm 2 m/s 722 mmHg 80%
    06:00 +2°C° 0,2 mm 2 m/s 722 mmHg 81%
    07:00 +2°C° 0,2 mm 2 m/s 722 mmHg 82%
    08:00 +2°C° 0,3 mm 3 m/s 722 mmHg 80%
    09:00 +3°C° 0,3 mm 4 m/s 723 mmHg 79%
    10:00 +3°C° 0,3 mm 5 m/s 723 mmHg 78%
    11:00 +3°C° 0,1 mm 5 m/s 724 mmHg 76%
    12:00 +3°C° 0,1 mm 6 m/s 724 mmHg 74%
    13:00 +3°C° 0,1 mm 6 m/s 724 mmHg 73%
    14:00 +2°C° 0,1 mm 5 m/s 724 mmHg 76%
    15:00 +1°C° 0,1 mm 4 m/s 724 mmHg 79%
    16:00 +3°C° 0,1 mm 2 m/s 725 mmHg 83%
    17:00 +2°C° 0 mm 2 m/s 724 mmHg 84%
    18:00 +2°C° 0 mm 2 m/s 724 mmHg 85%
    19:00 +2°C° 0 mm 2 m/s 724 mmHg 86%
    20:00 +2°C° 0 mm 2 m/s 723 mmHg 86%
    21:00 +2°C° 0 mm 2 m/s 723 mmHg 85%
    22:00 +2°C° 0 mm 2 m/s 722 mmHg 85%
    23:00 +2°C° 0,3 mm 2 m/s 721 mmHg 85%

    Poimâine, 15 Decembrie, Vineri

    Timp Temperatura Precipitaţii Vânt Presiune Umiditate
    00:00 +2°C° 0,3 mm 2 m/s 721 mmHg 85%
    01:00 +2°C° 0,3 mm 2 m/s 720 mmHg 86%
    02:00 +3°C° 0,2 mm 1 m/s 719 mmHg 87%
    03:00 +3°C° 0,2 mm 1 m/s 719 mmHg 88%
    04:00 +3°C° 0,2 mm 1 m/s 718 mmHg 89%
    05:00 +2°C° 0,4 mm 2 m/s 719 mmHg 89%
    06:00 +2°C° 0,4 mm 3 m/s 720 mmHg 89%
    07:00 +1°C° 0,4 mm 4 m/s 720 mmHg 90%
    08:00 +1°C° 0,2 mm 4 m/s 721 mmHg 88%
    09:00 +1°C° 0,2 mm 4 m/s 721 mmHg 87%
    10:00 +1°C° 0,2 mm 4 m/s 722 mmHg 86%
    11:00 +1°C° 0 mm 4 m/s 722 mmHg 82%
    12:00 +3°C° 0 mm 4 m/s 722 mmHg 79%
    13:00 +3°C° 0 mm 3 m/s 723 mmHg 75%
    14:00 +2°C° 0 mm 3 m/s 723 mmHg 78%
    15:00 +2°C° 0 mm 2 m/s 723 mmHg 81%
    16:00 +1°C° 0 mm 2 m/s 723 mmHg 84%
    17:00 +1°C° 0 mm 2 m/s 723 mmHg 83%
    18:00 +1°C° 0 mm 2 m/s 724 mmHg 82%
    19:00 +1°C° 0 mm 2 m/s 724 mmHg 81%
    20:00 +1°C° 0 mm 2 m/s 724 mmHg 82%
    21:00 +2°C° 0 mm 1 m/s 724 mmHg 83%
    22:00 +2°C° 0 mm 1 m/s 724 mmHg 84%
    23:00 +2°C° 0,1 mm 1 m/s 725 mmHg 85%

    16 Decembrie, Sâmbătă

    Timp Temperatura Precipitaţii Vânt Presiune Umiditate
    00:00 +2°C° 0,1 mm 1 m/s 725 mmHg 87%
    01:00 +2°C° 0,1 mm 1 m/s 725 mmHg 88%
    02:00 +2°C° 0,2 mm 1 m/s 725 mmHg 89%
    03:00 +2°C° 0,2 mm 1 m/s 725 mmHg 90%
    04:00 +2°C° 0,2 mm 1 m/s 725 mmHg 91%
    05:00 +1°C° 0,1 mm 2 m/s 726 mmHg 91%
    06:00 +1°C° 0,1 mm 2 m/s 726 mmHg 91%
    07:00 +1°C° 0,1 mm 2 m/s 726 mmHg 91%
    08:00 +1°C° 0,1 mm 2 m/s 727 mmHg 90%
    09:00 +1°C° 0,1 mm 2 m/s 727 mmHg 89%
    10:00 +2°C° 0,1 mm 2 m/s 728 mmHg 88%
    11:00 +1°C° 0,1 mm 3 m/s 728 mmHg 88%
    12:00 +1°C° 0,1 mm 3 m/s 728 mmHg 88%
    13:00 +2°C° 0,1 mm 3 m/s 728 mmHg 88%
    14:00 +1°C° 0,1 mm 3 m/s 729 mmHg 88%
    15:00 +1°C° 0,1 mm 3 m/s 729 mmHg 89%
    16:00 +1°C° 0,1 mm 3 m/s 730 mmHg 89%
    17:00 0°C° 0,1 mm 3 m/s 730 mmHg 91%
    18:00 +1°C° 0,1 mm 2 m/s 731 mmHg 92%
    19:00 -1°C° 0,1 mm 2 m/s 732 mmHg 94%
    20:00 -1°C° 0 mm 2 m/s 732 mmHg 94%
    21:00 -1°C° 0 mm 2 m/s 733 mmHg 94%
    22:00 -1°C° 0 mm 2 m/s 733 mmHg 94%
    23:00 -1°C° 0 mm 2 m/s 733 mmHg 94%

    17 Decembrie, Duminică

    Timp Temperatura Precipitaţii Vânt Presiune Umiditate
    00:00 -1°C° 0 mm 2 m/s 734 mmHg 93%
    01:00 -1°C° 0 mm 2 m/s 734 mmHg 93%
    02:00 -1°C° 0,1 mm 3 m/s 734 mmHg 92%
    03:00 -1°C° 0,1 mm 3 m/s 734 mmHg 91%
    04:00 -1°C° 0,1 mm 3 m/s 735 mmHg 90%
    05:00 -1°C° 0,1 mm 3 m/s 735 mmHg 90%
    06:00 -1°C° 0,1 mm 3 m/s 735 mmHg 89%
    07:00 -1°C° 0,1 mm 3 m/s 736 mmHg 89%
    08:00 -1°C° 0,1 mm 3 m/s 736 mmHg 88%
    09:00 -2°C° 0,1 mm 4 m/s 737 mmHg 87%
    10:00 -2°C° 0,1 mm 4 m/s 737 mmHg 85%
    11:00 -1°C° 0,2 mm 4 m/s 737 mmHg 84%
    12:00 -1°C° 0,2 mm 4 m/s 737 mmHg 83%
    13:00 -1°C° 0,2 mm 4 m/s 737 mmHg 83%
    14:00 -1°C° 0,2 mm 4 m/s 738 mmHg 84%
    15:00 -1°C° 0,2 mm 4 m/s 738 mmHg 86%
    16:00 -1°C° 0,2 mm 3 m/s 738 mmHg 87%
    17:00 -1°C° 0,1 mm 3 m/s 739 mmHg 89%
    18:00 -1°C° 0,1 mm 3 m/s 739 mmHg 90%
    19:00 -1°C° 0,1 mm 3 m/s 740 mmHg 92%
    20:00 -2°C° 0,1 mm 3 m/s 740 mmHg 92%
    21:00 -2°C° 0,1 mm 2 m/s 741 mmHg 93%
    22:00 -2°C° 0,1 mm 2 m/s 741 mmHg 93%
    23:00 -2°C° 0,2 mm 2 m/s 741 mmHg 93%

    18 Decembrie, Luni

    Timp Temperatura Precipitaţii Vânt Presiune Umiditate
    00:00 -2°C° 0,2 mm 2 m/s 742 mmHg 94%
    01:00 -2°C° 0,2 mm 2 m/s 742 mmHg 94%
    02:00 -2°C° 0,2 mm 3 m/s 742 mmHg 93%
    03:00 -2°C° 0,2 mm 3 m/s 742 mmHg 92%
    04:00 -2°C° 0,2 mm 3 m/s 742 mmHg 91%
    05:00 -2°C° 0,1 mm 3 m/s 742 mmHg 91%
    06:00 -2°C° 0,1 mm 3 m/s 742 mmHg 90%
    07:00 -2°C° 0,1 mm 3 m/s 743 mmHg 90%
    08:00 -2°C° 0,1 mm 3 m/s 743 mmHg 88%
    09:00 -2°C° 0,1 mm 3 m/s 742 mmHg 87%
    10:00 -3°C° 0,1 mm 4 m/s 742 mmHg 85%
    11:00 -2°C° 0,2 mm 4 m/s 742 mmHg 85%
    12:00 -2°C° 0,2 mm 4 m/s 741 mmHg 85%
    13:00 -2°C° 0,2 mm 4 m/s 740 mmHg 85%
    14:00 -2°C° 0,6 mm 4 m/s 739 mmHg 87%
    15:00 -2°C° 0,6 mm 4 m/s 739 mmHg 90%
    16:00 -1°C° 0,6 mm 3 m/s 738 mmHg 92%
    17:00 -1°C° 0,8 mm 3 m/s 738 mmHg 93%
    18:00 -1°C° 0,8 mm 3 m/s 738 mmHg 93%
    19:00 0°C° 0,8 mm 3 m/s 738 mmHg 93%
    20:00 0°C° 0,5 mm 3 m/s 738 mmHg 93%
    21:00 0°C° 0,5 mm 3 m/s 738 mmHg 93%
    22:00 +1°C° 0,5 mm 3 m/s 739 mmHg 93%
    23:00 +1°C° 0,4 mm 3 m/s 739 mmHg 94%
    Arată mai mult